Voltar ao catálogo

THORAD DELTA 1 DEB

AtivoSSO
NORAD 8561·DEBRIS·🇺🇸 United States

Lançado Nov 15, 1974 de Vandenberg Space Force Base

Loading…

Próximas Passagens (próximas 24 horas)

TLE

AtualizadoSource: Space-Track

Época: Sep 14, 2026, 14:40 UTC

1 08561U 74089CY  26257.61145538  .00000150  00000-0  10093-2 0  9994
2 08561 101.4991 299.9373 0063937 349.7405 162.6036 12.67712234386645

Acompanhe THORAD DELTA 1 DEB em tempo real com AllMySat

Download on the App Store